GFSMW_prec_cloud_114.txt.gz
Cloud_Cover
95 100 100 100 100 100 100 100 100 55 28 72 14 17 5 27 0 2 14 61 88 100 89 100 1 25 54 92 58 99 100 100 100 100 100 100 100 100 100 100 100 100 100
49 99 100 100 100 99 100 100 65 88 90 90 39 15 32 24 14 3 36 5 5 17 99 50 0 28 100 98 100 100 100 100 100 100 100 100 100 100 100 100 100 100 100
88 89 18 5 45 100 51 9 94 17 21 69 98 46 51 14 54 54 31 100 81 71 100 5 42 30 100 100 98 100 83 100 100 100 100 100 100 100 100 100 100 100 100
100 100 94 5 77 100 74 100 72 90 66 99 78 100 96 80 67 19 78 86 100 100 100 89 64 98 64 100 100 100 82 90 100 100 100 100 100 100 100 100 100 100 100
100 100 100 47 5 94 100 100 97 21 63 60 68 99 100 67 99 35 96 100 100 100 100 100 97 100 100 73 74 100 98 100 100 100 100 100 100 100 100 100 100 100 100
97 100 100 100 100 98 68 93 37 65 48 43 74 98 100 100 98 44 40 100 100 100 100 100 100 100 100 100 100 70 92 100 100 100 100 100 100 100 100 100 100 100 100
100 100 100 100 100 13 30 38 100 100 80 56 64 50 98 100 100 100 16 100 100 100 100 99 100 99 100 100 100 100 99 98 100 100 100 100 100 100 100 100 100 100 100
100 100 100 100 100 95 97 90 100 100 64 31 18 20 100 100 100 96 85 99 100 100 100 100 84 98 100 100 100 100 100 100 100 100 100 100 100 100 100 100 100 100 100
100 100 100 100 100 100 58 78 99 100 93 38 5 93 100 100 100 93 77 100 100 100 100 98 100 94 82 100 100 100 100 100 100 100 100 100 100 100 100 100 100 100 100
98 81 99 100 100 100 100 100 100 85 29 10 100 100 100 100 87 13 100 100 100 100 72 65 100 93 100 100 100 100 100 100 100 100 100 100 100 100 100 100 100 100 100
100 100 100 100 100 100 100 86 94 98 100 66 5 93 44 16 10 28 100 100 100 100 36 53 93 100 100 100 100 100 100 100 100 100 100 100 100 100 100 100 100 100 100
100 100 100 100 100 100 100 100 100 100 100 100 100 94 93 12 14 82 100 100 98 65 99 43 97 100 100 100 100 100 100 100 100 100 100 100 100 100 100 100 100 100 100
100 94 54 99 100 100 100 100 81 100 100 100 100 100 100 100 14 100 100 100 99 90 100 100 74 100 100 100 100 100 100 100 100 100 100 100 100 100 100 100 100 100 100
100 100 99 94 100 90 100 100 93 100 100 100 100 100 100 100 34 100 100 100 64 100 100 100 100 100 100 100 100 100 100 100 100 100 100 100 100 100 100 100 100 100 100
100 100 100 100 100 100 100 100 100 88 59 100 100 100 100 100 100 100 100 100 94 100 100 100 100 100 90 100 100 100 100 100 100 100 100 100 100 100 100 100 100 100 100
100 100 100 100 100 100 100 100 100 100 74 100 100 100 100 96 100 100 100 100 100 100 100 100 100 100 100 100 100 100 100 100 100 100 100 100 100 100 100 100 100 100 100
85 100 100 100 100 100 100 100 100 100 96 100 100 100 100 100 100 100 100 100 100 100 100 100 100 100 100 99 100 96 96 100 100 100 100 100 100 100 100 100 100 100 100
100 100 100 100 100 100 100 100 100 100 97 100 100 100 100 100 100 100 100 100 100 100 100 100 100 100 100 71 100 94 100 100 100 100 100 100 100 100 100 100 100 100 100
100 100 100 100 100 100 100 100 100 100 100 100 100 100 100 100 100 100 100 100 100 100 100 100 100 100 100 100 100 100 100 100 100 100 100 100 100 100 100 100 100 100 100
100 100 100 100 100 100 100 100 77 100 100 100 100 100 100 100 100 100 100 100 100 100 100 100 100 100 100 100 100 100 100 100 100 100 100 100 100 100 100 100 100 100 100
100 100 100 100 100 100 99 100 100 100 100 100 100 100 100 100 100 100 100 100 100 100 100 100 100 100 100 100 100 100 100 100 100 100 100 100 100 100 100 100 100 100 100
100 100 100 100 100 100 100 100 100 100 100 100 100 100 100 100 100 100 100 100 100 100 100 100 100 100 100 100 100 100 100 100 100 100 100 100 100 100 100 100 100 100 100
100 91 98 100 100 100 100 100 100 100 100 100 100 100 100 100 100 100 100 100 100 100 100 100 100 100 100 100 100 100 100 100 100 100 100 100 100 100 100 100 100 100 100
100 76 98 100 100 100 100 100 100 100 100 100 100 100 100 100 100 100 100 100 100 100 100 100 100 100 100 100 100 100 100 100 100 100 100 100 100 100 100 100 100 100 100
86 98 100 100 100 100 100 100 100 100 100 100 100 100 100 100 100 100 100 100 100 100 100 100 100 100 100 100 100 100 100 100 100 100 100 100 100 100 100 100 100 100 100
100 100 100 100 100 100 100 100 100 100 100 100 100 100 100 100 100 100 100 100 100 100 100 100 100 100 100 100 100 100 100 100 100 100 100 100 100 100 100 100 100 100 100

GFSMW_prec_cloud_117.txt.gz
Cloud_Cover
0 59 65 12 47 100 100 100 100 100 100 100 100 100 97 5 5 7 5 0 0 0 87 100 100 97 7 4 18 97 100 99 90 77 100 100 100 93 100 100 100 100 100
5 9 100 14 17 12 63 100 100 100 100 100 100 56 5 5 5 5 10 5 4 5 20 100 100 100 49 100 100 100 98 100 100 100 100 100 100 100 100 100 100 100 100
25 11 16 84 100 45 17 72 100 100 100 100 100 100 80 100 89 56 100 56 13 8 5 77 100 100 99 72 100 100 100 100 100 100 100 100 100 100 100 100 100 100 100
100 99 53 6 100 84 77 100 100 100 100 100 100 100 100 100 99 5 17 48 34 23 73 53 100 100 96 8 67 100 100 100 100 98 100 100 100 100 100 100 100 100 100
100 100 100 15 100 100 34 53 100 97 95 11 97 100 100 100 97 5 5 72 100 80 92 100 95 96 43 26 92 83 100 100 100 100 100 100 100 100 100 100 100 100 100
100 100 100 72 5 27 8 69 88 100 100 100 100 97 100 100 100 63 5 46 98 99 100 100 100 100 86 97 98 92 100 71 99 100 100 100 100 100 100 100 100 100 100
78 100 100 12 35 96 100 100 100 100 100 75 100 94 100 100 100 54 39 82 100 100 100 100 100 100 100 100 100 100 100 100 96 100 100 100 100 100 100 100 100 100 100
100 100 38 77 100 34 100 100 100 100 100 94 72 25 14 82 100 57 100 100 100 100 100 100 100 100 100 100 100 100 100 100 100 100 100 100 100 100 100 100 100 100 100
100 67 18 99 100 80 100 100 100 100 100 100 100 100 49 98 100 7 11 93 100 100 100 100 100 100 100 100 100 100 100 100 100 78 100 100 100 100 100 100 100 100 100
93 14 86 42 100 100 99 98 100 100 100 100 100 28 39 67 65 6 35 100 100 100 100 100 100 100 100 100 100 100 100 100 100 100 100 100 100 100 100 100 100 100 100
16 80 92 100 100 100 100 100 100 100 100 100 100 95 90 96 72 98 92 100 100 64 100 91 94 100 100 100 100 100 100 100 100 100 100 100 100 100 100 100 100 100 100
100 100 100 94 100 100 100 100 92 100 100 100 100 100 100 100 100 100 100 87 91 100 100 98 21 79 100 100 100 100 100 100 100 100 100 100 100 100 100 100 100 100 100
100 96 73 81 100 100 100 100 100 100 100 100 100 100 100 100 100 100 100 100 100 98 100 82 93 100 100 100 100 100 100 100 100 100 100 100 100 100 100 100 100 100 100
93 99 100 100 100 100 98 100 100 100 100 100 100 100 100 100 100 100 100 100 86 100 100 95 60 100 100 100 100 100 100 100 100 100 100 100 100 100 100 100 100 100 100
100 100 100 100 100 100 100 100 100 100 100 100 100 100 100 100 100 100 100 100 99 100 100 31 83 100 100 100 100 100 100 100 100 100 100 100 100 100 100 100 100 100 100
100 100 100 100 100 100 100 100 100 100 100 100 100 100 100 100 100 100 100 100 100 100 100 39 100 100 100 100 100 100 100 100 98 100 100 100 100 100 100 100 100 100 100
94 100 100 100 100 100 100 100 100 100 100 100 100 100 100 100 100 100 54 100 100 100 100 98 100 100 100 100 100 100 100 100 100 100 100 100 100 100 100 100 100 100 100
100 100 100 100 100 100 100 100 100 100 100 100 100 100 100 100 100 100 97 100 100 100 94 100 100 100 100 100 100 100 100 100 96 100 100 100 100 100 100 100 100 100 100
100 100 100 70 71 100 100 100 75 98 76 100 100 100 100 100 100 100 100 100 100 93 100 100 100 100 100 100 100 100 100 100 100 100 100 100 100 100 100 100 100 100 100
100 100 100 92 100 100 100 92 99 100 100 100 100 100 100 100 100 100 100 100 100 100 100 100 100 100 100 100 100 100 100 100 100 100 100 100 100 100 100 100 100 100 100
100 100 99 100 100 100 100 100 100 100 100 96 100 100 100 100 100 100 100 100 100 100 100 100 100 100 100 100 100 100 100 100 100 100 100 100 100 100 100 100 100 100 100
100 100 100 82 77 84 100 100 100 100 100 96 100 100 100 100 100 100 100 100 100 100 100 100 100 100 100 100 100 100 100 100 100 100 100 100 100 100 100 100 100 100 100
100 100 99 96 98 85 99 100 100 91 89 100 100 100 100 100 100 100 100 100 100 100 100 100 100 100 100 100 100 100 100 100 100 100 100 100 100 100 100 100 100 100 100
99 100 100 100 100 88 100 100 100 100 100 100 100 100 100 100 100 100 100 100 100 100 100 100 100 100 100 100 100 100 100 100 100 100 100 100 100 100 100 100 100 100 100
81 92 97 98 86 86 99 100 100 100 100 100 100 100 100 100 100 100 100 100 100 100 100 100 100 100 100 100 100 100 100 100 100 100 100 100 100 100 100 100 100 100 100
98 96 86 92 100 100 100 100 100 100 100 100 100 100 100 100 100 100 100 100 100 100 100 100 100 100 100 100 100 100 100 100 100 100 100 100 100 100 100 100 100 100 100

GFSMW_prec_cloud_120.txt.gz
Cloud_Cover
61 41 4 0 5 3 0 0 5 98 100 100 100 99 5 62 100 100 100 100 92 7 5 6 81 100 100 21 29 66 100 100 100 100 100 100 100 100 100 90 100 100 100
100 100 100 56 5 43 5 5 6 98 100 100 100 100 88 100 100 100 100 100 48 97 5 5 27 54 100 100 74 98 100 100 100 100 100 95 100 100 100 100 100 100 100
99 100 100 74 60 37 66 93 5 73 100 100 100 100 100 100 100 100 100 100 100 90 8 8 12 91 100 100 100 98 100 100 100 100 100 100 100 100 100 100 100 100 100
82 100 100 100 100 100 19 78 99 54 47 54 100 100 100 100 100 85 22 92 100 8 40 83 84 93 100 100 100 100 100 100 100 100 100 100 27 100 100 100 100 100 100
100 100 100 84 100 79 5 24 97 100 100 100 100 100 100 100 100 100 5 100 16 5 68 100 100 100 95 100 100 100 99 90 100 100 100 67 100 100 100 100 100 100 100
100 100 78 12 7 85 90 100 100 100 100 100 100 80 100 100 100 92 95 100 5 72 89 99 84 100 99 100 100 100 100 100 100 95 100 100 100 100 100 100 100 100 100
100 95 78 90 96 96 100 100 100 100 100 100 98 100 100 100 100 100 100 100 38 100 100 46 92 87 100 100 100 100 100 100 100 95 86 100 100 100 100 100 100 100 100
75 96 59 5 8 5 10 88 100 100 100 100 99 43 100 98 100 100 100 99 98 100 100 97 97 99 100 100 100 100 100 100 100 100 93 100 100 100 100 100 100 100 100
100 11 13 72 96 100 100 100 100 100 100 100 100 99 100 26 98 97 39 61 100 100 88 60 100 100 100 100 100 100 100 100 100 100 100 87 100 100 100 100 100 100 100
55 31 33 74 78 98 100 95 92 97 100 100 98 100 66 100 100 100 100 67 87 100 67 39 100 100 100 100 100 100 100 100 100 100 100 100 93 100 100 100 100 100 100
45 67 98 94 92 92 98 100 58 77 100 100 100 96 92 100 100 100 100 100 78 98 100 100 94 100 100 100 100 100 100 100 100 100 100 100 100 100 100 100 100 100 100
100 100 100 100 97 100 100 100 74 100 100 100 100 100 100 96 100 100 100 64 100 100 100 100 100 100 100 100 100 100 100 100 100 100 100 100 100 100 100 100 100 100 100
100 100 99 100 97 100 98 80 17 21 100 100 98 87 91 100 100 100 100 100 100 100 100 100 100 100 100 100 100 100 100 83 100 100 100 100 100 100 100 100 100 100 100
100 100 100 100 100 99 100 100 100 100 69 86 100 67 83 100 100 100 100 100 92 100 100 100 100 100 100 100 100 100 100 100 100 100 100 100 100 100 100 100 100 100 100
100 100 100 100 100 100 100 96 100 100 64 98 100 98 71 96 100 97 100 100 100 100 100 100 97 100 100 100 100 100 100 100 96 100 100 100 100 100 100 100 100 100 100
100 100 100 100 100 100 100 100 100 100 99 100 100 100 97 100 100 100 100 100 100 100 100 100 96 100 100 100 100 100 100 100 100 100 100 100 100 100 100 100 100 100 100
100 100 100 100 100 100 100 100 100 100 100 100 100 100 100 100 100 100 100 100 100 100 100 100 100 100 100 100 100 100 100 100 100 100 100 100 100 100 100 100 100 100 100
98 100 100 100 100 100 100 100 100 100 100 100 100 97 100 100 100 100 100 100 100 100 100 100 100 82 98 100 100 100 100 100 100 100 100 100 100 100 100 100 100 100 100
100 100 98 99 100 100 100 100 100 100 100 100 100 100 100 100 100 100 100 100 100 100 100 100 100 83 100 100 100 100 100 100 100 100 100 100 100 100 100 100 100 100 100
100 96 89 53 100 100 100 100 100 100 100 100 100 100 100 100 100 100 100 100 100 100 100 100 96 97 100 100 100 100 100 100 100 100 100 100 100 100 100 100 100 100 100
100 92 34 67 100 100 100 97 100 100 100 95 75 92 99 100 100 100 100 100 100 100 100 100 100 100 100 100 100 100 100 100 100 100 100 100 100 100 100 100 100 100 100
100 100 100 99 91 99 100 100 94 82 91 70 74 85 82 100 100 100 100 100 100 100 100 100 100 100 100 100 100 100 100 100 100 100 100 100 100 100 100 100 100 100 100
100 99 100 100 100 98 100 100 99 85 86 70 86 88 99 100 100 100 100 100 100 100 100 100 100 100 100 100 100 100 100 100 100 100 100 100 100 100 100 100 100 100 100
76 25 76 86 76 100 100 100 99 99 75 65 86 97 100 100 100 100 100 100 100 100 100 100 100 100 100 100 100 100 100 100 100 100 100 100 100 100 100 100 100 100 100
5 11 93 94 88 98 100 100 99 98 74 74 82 98 100 100 100 100 100 100 100 100 100 100 100 100 100 100 100 100 100 100 100 100 100 100 100 100 100 100 100 100 100
63 74 82 81 88 94 99 100 99 98 100 95 100 100 100 100 100 100 100 100 100 100 100 100 100 100 100 100 100 100 100 100 100 100 100 100 100 100 100 100 100 100 100

GFSMW_prec_cloud_123.txt.gz
Cloud_Cover
4 4 4 5 5 95 88 42 49 18 5 5 5 24 36 35 29 38 48 29 83 100 100 100 100 57 84 56 83 93 100 99 100 100 100 100 100 100 100 100 100 100 100
95 100 35 24 5 5 88 5 9 62 8 91 99 44 5 92 30 41 100 100 88 64 100 100 100 100 100 100 100 100 100 100 100 100 100 88 98 100 100 92 100 100 100
57 100 100 92 79 91 5 3 6 13 5 12 100 100 28 65 100 100 100 100 100 100 100 100 100 100 29 51 99 100 100 100 100 100 81 94 50 89 86 98 97 100 100
5 100 100 94 23 30 5 5 4 2 9 92 100 100 46 58 100 100 100 100 100 100 100 100 100 100 63 59 96 100 100 100 100 100 100 100 43 24 92 100 100 100 100
3 99 100 100 11 5 5 5 11 98 100 31 92 97 100 100 100 100 100 100 100 100 100 100 94 100 100 100 100 100 100 100 100 100 100 100 100 68 100 100 100 100 100
0 5 100 100 15 5 9 25 100 100 100 100 99 100 100 100 100 100 100 100 100 100 100 95 95 100 97 100 100 100 100 100 100 100 100 100 100 75 100 91 100 100 100
5 5 78 43 25 4 9 95 100 100 100 100 100 100 100 100 100 100 100 100 100 99 99 99 100 100 94 56 100 100 100 100 100 100 100 100 100 6 43 100 59 100 100
5 5 29 77 96 94 83 100 100 100 100 100 100 96 99 100 100 100 100 100 100 97 6 45 72 100 58 100 99 96 100 97 100 100 100 100 100 82 96 100 100 100 100
37 23 36 100 100 100 99 100 100 100 100 100 100 95 95 100 62 100 100 100 100 100 20 17 68 78 54 96 89 80 100 100 100 100 100 100 99 100 100 100 100 100 100
100 100 96 94 100 89 100 100 99 99 100 100 100 100 100 100 100 100 96 100 100 100 99 10 60 99 79 100 100 100 100 100 100 100 100 100 98 100 98 99 99 100 100
100 100 87 100 100 90 100 100 100 100 100 100 100 88 95 100 100 100 100 100 100 100 95 100 100 97 95 100 100 100 100 100 100 100 100 99 100 100 100 100 100 100 100
99 100 95 96 100 100 100 100 100 100 100 100 100 92 89 25 5 44 64 100 99 96 92 100 100 100 100 100 100 100 100 100 100 100 100 100 97 100 100 100 100 100 100
100 100 100 100 100 99 100 98 100 81 10 5 5 28 5 11 65 5 28 81 99 100 100 100 100 100 100 100 100 100 100 100 100 100 100 96 100 100 100 100 100 100 100
100 100 98 96 88 80 96 100 98 90 88 96 100 92 12 64 83 100 88 26 100 100 100 100 100 100 100 100 100 100 100 100 100 100 98 97 99 100 100 100 100 100 100
100 100 100 100 100 100 100 100 100 98 100 100 84 75 95 100 100 100 100 56 100 100 100 100 100 100 100 100 100 100 100 100 100 100 91 98 96 100 83 100 100 100 100
100 100 100 100 100 100 100 100 100 100 100 100 100 100 100 100 100 100 100 100 100 100 100 100 100 100 100 100 100 100 100 100 100 100 100 87 91 87 100 100 100 100 100
100 100 100 100 100 100 100 100 100 100 100 100 99 100 100 100 100 100 96 100 100 100 100 100 100 100 100 100 100 100 100 100 100 100 100 100 100 100 100 100 100 100 100
100 100 100 100 100 100 100 100 100 100 100 100 100 100 100 100 100 100 100 100 100 100 100 100 100 100 100 100 100 100 100 100 100 100 100 100 100 100 100 100 100 100 100
100 100 98 100 100 100 100 100 100 100 100 100 100 100 100 100 100 100 100 100 100 100 100 100 100 100 100 100 100 100 100 100 100 100 100 100 100 100 100 100 100 100 100
100 90 74 99 100 100 100 100 100 100 100 100 100 100 100 100 100 100 100 100 100 100 100 100 100 100 100 100 100 100 100 100 100 100 100 100 99 100 100 100 100 100 100
100 100 100 88 100 100 100 100 100 100 100 94 71 100 100 100 100 100 100 100 100 100 100 100 100 100 100 100 100 100 100 100 100 100 100 100 100 100 100 100 100 100 100
100 96 81 100 100 100 100 100 100 98 92 98 99 100 99 100 100 100 100 100 100 100 100 100 100 100 100 100 100 100 100 100 100 100 100 100 100 100 100 100 100 100 100
100 100 100 81 100 100 100 100 100 100 51 28 41 80 88 100 100 77 100 100 100 100 100 100 100 100 100 100 100 100 100 100 100 100 100 100 100 100 100 100 100 100 100
97 100 100 100 100 100 100 100 100 100 78 25 42 57 86 81 88 90 100 100 100 100 100 100 100 100 100 100 100 100 100 100 100 100 100 100 100 100 100 100 100 100 100
37 66 94 100 100 99 100 100 100 100 100 56 27 75 92 91 94 100 100 100 100 100 100 100 100 100 100 100 100 100 100 100 100 100 100 100 100 100 100 100 100 100 100
70 89 100 100 100 96 100 100 100 100 100 85 84 82 98 100 100 100 100 100 100 100 100 100 100 100 100 100 100 100 100 100 100 100 100 100 100 100 100 100 100 100 100

GFSMW_prec_cloud_126.txt.gz
Cloud_Cover
91 100 100 100 100 78 5 98 100 15 15 5 32 74 56 81 75 38 9 16 72 58 68 89 48 100 100 100 91 100 100 100 100 100 100 100 100 87 36 98 100 100 100
0 2 5 77 100 100 34 6 83 100 88 2 5 5 5 57 61 92 67 100 76 44 92 88 97 100 100 95 100 100 100 100 100 100 99 44 87 100 100 96 92 98 63
0 0 3 14 84 100 99 32 54 73 100 65 35 94 52 61 100 100 97 63 100 74 33 85 86 100 100 100 100 86 100 100 100 100 100 100 32 83 99 100 100 95 100
0 0 3 100 100 99 100 92 44 85 100 76 8 79 23 72 88 80 81 99 100 100 100 100 98 100 100 100 100 99 45 100 100 100 100 100 88 25 82 65 36 100 100
0 0 0 100 100 100 98 100 100 100 100 100 98 100 29 48 44 42 99 100 100 100 100 100 100 100 100 100 100 82 89 100 100 100 100 100 100 100 100 97 98 82 100
0 0 0 90 100 9 33 83 100 100 100 86 94 100 100 47 52 73 78 100 100 100 100 100 100 83 100 100 100 100 100 100 100 100 100 100 100 100 100 100 26 19 100
53 21 3 44 8 77 70 89 100 100 92 81 100 100 86 98 100 100 100 100 100 100 100 100 100 100 100 100 100 100 100 100 100 100 100 100 100 100 100 100 25 38 75
90 58 33 85 84 100 100 81 100 100 100 100 99 59 96 100 100 100 100 100 100 100 100 100 100 100 100 100 99 100 100 100 76 100 100 100 100 100 100 100 12 89 100
100 99 88 100 100 100 87 90 93 53 100 100 100 100 93 100 100 100 100 100 100 100 100 100 100 100 100 100 100 100 93 76 98 99 100 100 100 100 100 100 60 54 100
100 100 100 100 100 87 29 39 79 100 100 100 100 100 100 100 100 100 100 100 100 100 100 100 100 100 100 100 100 100 92 99 100 100 82 100 100 100 100 100 100 100 74
100 100 100 100 100 87 87 94 75 88 100 77 51 87 100 100 100 100 100 100 100 100 100 100 98 100 100 100 100 100 100 100 100 100 100 100 100 100 100 100 97 100 100
100 100 100 100 100 100 100 100 100 100 100 100 100 100 100 100 100 100 100 52 95 100 100 100 99 100 100 100 100 100 100 100 100 100 100 100 100 100 100 100 100 100 84
100 100 100 100 100 100 100 100 100 100 100 100 100 100 100 100 100 100 98 82 19 66 96 100 100 100 100 100 100 100 100 100 100 100 100 100 100 100 100 100 100 100 100
100 100 100 100 100 100 100 100 100 100 100 100 99 99 100 100 97 100 98 55 44 36 40 45 100 100 100 100 100 100 100 100 100 100 100 100 100 100 100 100 100 100 100
100 100 100 100 100 100 100 100 100 100 100 100 97 98 100 100 100 100 100 96 46 54 76 88 100 100 100 100 100 100 100 100 100 100 100 100 100 100 95 100 100 100 100
100 100 100 100 100 100 100 100 100 100 100 96 97 100 95 65 88 100 100 100 87 56 90 100 100 100 100 100 100 100 100 100 100 100 100 100 100 100 100 100 100 100 100
100 100 100 100 100 100 100 100 100 100 100 100 100 100 100 100 100 100 100 100 100 72 100 100 100 100 100 100 100 100 100 100 100 100 100 100 100 100 100 100 97 100 99
100 100 100 100 100 100 100 100 100 100 100 100 100 100 100 100 100 100 100 100 100 100 100 100 100 100 100 100 100 100 100 100 100 100 100 100 100 100 100 100 100 100 100
100 100 100 100 100 100 100 100 100 100 100 100 100 100 100 100 100 100 100 100 100 100 100 100 100 100 100 100 100 100 100 100 100 100 100 100 100 100 100 100 100 100 100
100 100 100 100 100 100 100 100 100 100 100 100 100 100 100 100 100 100 100 100 100 100 100 100 100 100 100 100 100 100 100 100 100 100 100 100 100 100 100 100 100 100 100
100 100 100 100 100 100 100 100 100 100 84 100 84 100 100 100 100 100 100 100 100 100 100 100 100 100 100 100 100 100 100 100 100 100 100 100 100 100 100 99 100 100 100
100 100 100 100 100 100 100 100 100 100 100 87 31 91 78 100 100 100 96 100 100 100 100 100 100 100 100 100 100 100 100 100 100 100 100 100 100 100 100 100 100 100 100
100 98 89 94 100 100 100 100 100 100 98 5 16 31 84 97 100 100 100 100 100 100 100 100 100 100 100 100 100 100 100 100 100 100 100 100 100 100 100 100 100 100 100
100 100 100 100 100 99 100 100 100 100 85 99 82 76 90 84 90 99 98 100 100 100 100 100 100 100 100 100 100 100 100 100 100 100 100 100 100 100 100 100 100 100 100
74 82 100 100 100 100 98 97 100 100 99 100 98 81 98 94 90 96 100 100 100 100 100 100 100 100 100 100 100 100 100 100 100 100 100 100 100 100 100 100 100 100 100
79 81 76 89 95 92 100 80 100 100 100 100 100 94 90 100 100 88 82 86 100 100 100 100 100 100 100 100 100 100 100 100 100 100 100 100 100 100 100 100 100 100 100

GFSMW_prec_cloud_129.txt.gz
Cloud_Cover
3 4 0 0 0 17 100 100 100 100 100 100 80 22 94 91 100 26 40 96 100 100 100 55 43 72 98 100 100 94 91 97 86 100 100 100 100 98 97 77 32 57 73
0 0 0 0 0 1 100 100 100 100 100 100 100 69 55 26 5 24 63 97 74 96 100 82 79 100 100 100 100 100 99 100 99 96 100 100 88 99 65 87 95 69 71
0 0 0 0 0 0 24 100 100 100 100 100 100 78 21 51 100 95 85 82 54 39 97 89 100 100 100 100 100 100 89 100 100 94 76 81 32 27 95 100 57 91 98
0 0 0 0 0 0 5 8 100 100 100 100 100 100 48 100 100 96 97 100 76 52 100 100 100 100 100 100 100 100 100 97 100 100 100 97 60 33 15 66 68 100 100
0 0 0 4 4 0 87 95 59 99 100 100 100 100 100 100 100 93 100 100 100 100 100 100 100 100 100 100 100 100 100 100 100 100 100 100 100 100 100 100 56 54 18
0 0 19 32 5 4 92 100 100 100 100 100 100 100 100 100 100 100 100 100 100 100 100 100 100 100 100 100 100 100 100 100 100 100 100 100 97 100 100 95 100 94 93
100 100 100 100 100 99 96 100 100 100 100 100 100 100 100 100 100 100 100 100 100 100 100 100 100 100 100 100 100 100 100 100 100 100 100 100 89 100 100 100 100 75 83
100 100 100 100 100 100 100 100 29 100 99 100 100 100 100 100 100 100 14 56 70 93 79 100 100 100 100 100 100 100 100 100 100 100 100 100 99 100 53 100 100 71 69
100 100 100 100 100 96 96 65 100 100 64 66 100 44 100 100 100 98 81 7 55 81 100 100 100 100 100 100 100 100 100 100 100 100 76 90 79 100 100 100 100 46 94
100 100 100 100 100 100 96 100 100 100 100 100 99 99 65 100 100 86 24 67 47 86 100 100 100 100 100 100 100 100 100 100 100 100 100 100 99 90 42 100 83 74 100
100 100 100 100 100 100 100 86 100 100 73 99 100 100 100 100 100 100 100 94 100 99 100 100 100 100 100 100 100 100 100 100 100 100 100 97 100 100 98 100 100 100 100
100 100 100 100 100 100 100 100 100 100 94 100 99 100 100 100 100 100 100 100 31 66 95 97 100 100 100 100 94 100 100 100 100 100 100 100 100 100 98 100 100 100 100
100 100 100 100 100 100 100 100 100 100 100 96 100 96 98 100 100 100 100 100 80 16 6 41 99 100 100 100 100 100 100 100 100 100 100 100 100 100 100 100 100 100 100
100 100 100 100 100 100 100 100 100 100 100 100 100 100 100 77 35 100 100 99 77 55 99 100 100 100 100 100 100 100 100 100 100 100 100 100 100 99 100 100 100 100 100
100 100 100 100 100 100 100 100 100 100 100 100 100 100 100 100 100 100 100 99 92 86 80 73 82 100 100 98 100 100 42 100 100 99 99 100 100 75 100 100 100 100 100
100 100 100 100 100 100 100 100 100 100 100 100 100 100 100 100 100 100 100 100 100 100 100 80 68 68 67 60 98 97 100 100 100 100 100 100 100 100 100 100 100 100 100
100 100 100 100 100 100 100 100 100 100 100 100 100 100 100 89 82 96 100 94 94 100 100 100 99 84 45 34 100 100 100 100 100 100 100 100 100 100 100 100 100 100 100
100 100 100 100 100 100 100 100 100 100 100 100 100 100 100 100 99 82 94 95 100 100 100 100 100 100 84 92 100 100 99 100 100 99 100 100 100 100 100 100 100 100 100
100 100 100 100 100 100 100 100 100 100 100 99 99 100 100 100 100 100 100 100 100 100 100 100 100 100 100 100 100 100 100 100 100 100 100 100 100 100 100 100 100 100 100
100 100 100 100 100 100 100 100 100 100 100 83 98 100 100 100 100 100 100 100 97 100 100 100 100 100 100 100 100 100 100 100 100 100 100 100 100 100 100 100 100 100 100
100 100 100 100 100 100 100 100 100 100 100 100 100 96 100 100 100 99 100 93 100 100 100 100 100 100 100 100 97 100 100 100 100 100 100 100 100 100 100 100 100 100 100
100 100 100 100 100 100 100 100 100 100 100 98 93 85 70 88 100 98 86 100 100 100 100 100 100 100 100 100 100 100 100 100 100 100 100 100 100 100 100 100 100 100 100
100 100 100 100 100 100 100 100 100 100 100 100 79 92 87 92 92 99 97 99 98 99 83 100 100 100 100 100 100 100 100 100 100 100 100 100 100 100 100 100 100 100 100
100 100 96 100 100 100 100 100 100 100 100 100 100 86 84 76 86 99 93 100 100 100 91 100 100 100 100 100 100 100 100 100 100 100 100 100 100 100 100 100 100 100 100
100 96 99 99 98 100 100 97 100 100 100 100 97 94 92 92 94 98 100 100 100 100 100 100 100 100 100 100 100 100 100 100 100 100 100 100 100 100 100 100 100 100 100
100 100 100 98 96 98 100 100 100 98 95 96 91 94 99 95 98 96 99 97 95 100 100 100 100 100 100 100 100 100 100 100 100 100 100 100 100 100 100 100 100 100 100

GFSMW_prec_cloud_132.txt.gz
Cloud_Cover
0 0 42 42 16 30 58 71 100 52 100 100 100 100 100 100 28 7 8 5 98 100 100 82 72 74 6 8 100 100 100 95 99 100 100 96 100 61 30 29 98 99 54
0 0 0 95 5 39 5 11 5 42 7 5 82 100 100 100 20 5 7 22 100 100 100 67 94 30 71 68 100 100 100 100 100 90 80 91 100 72 55 34 32 66 68
5 19 1 1 3 0 5 5 6 27 12 5 14 100 100 100 21 97 92 91 65 71 100 99 43 34 75 100 100 100 100 100 100 63 97 100 100 100 70 100 45 75 100
54 56 8 2 0 0 0 4 0 5 7 49 22 20 100 100 100 100 87 32 8 66 70 99 100 95 100 100 100 100 100 100 100 100 97 100 100 100 100 91 42 18 18
100 47 4 4 4 0 0 0 2 4 13 46 65 5 80 100 100 100 100 100 64 14 48 100 100 98 100 100 100 100 100 100 100 100 100 100 100 100 100 100 83 35 5
100 100 98 48 7 0 0 0 2 11 34 9 90 75 53 100 100 100 100 100 100 70 77 100 98 100 93 100 100 100 100 100 100 100 100 100 100 100 100 100 79 81 96
100 100 100 100 100 100 100 100 84 95 85 98 100 100 97 100 100 100 100 100 100 100 100 100 100 100 100 100 100 100 100 100 100 100 100 100 100 100 100 99 98 41 81
100 100 100 100 100 100 100 100 100 100 100 100 100 100 100 100 100 100 100 100 100 100 100 100 100 100 100 100 100 100 100 100 100 100 100 100 100 100 100 96 98 100 58
100 100 100 100 100 100 100 100 100 100 100 100 100 100 100 100 96 100 100 100 100 100 100 82 90 100 100 100 100 100 100 100 100 100 100 100 100 100 100 98 100 74 55
100 100 100 100 100 100 100 100 100 100 100 100 100 100 100 92 78 100 100 100 24 31 98 98 93 91 100 100 100 100 100 100 100 100 100 100 100 100 97 97 93 68 88
100 100 100 100 100 100 100 100 100 100 100 100 100 53 22 81 98 64 24 28 16 81 100 97 66 81 100 100 100 100 100 100 100 100 100 100 100 100 100 100 92 96 100
100 100 100 100 100 100 100 100 100 100 92 100 100 100 100 46 22 44 29 5 5 13 87 100 98 26 32 97 35 100 100 100 100 100 100 100 100 100 100 100 100 100 87
100 100 100 100 100 100 100 100 100 100 100 100 100 100 100 100 100 100 100 100 38 96 98 32 69 37 26 45 66 62 100 100 100 100 100 100 100 100 100 98 94 100 99
100 100 100 100 100 100 100 100 100 100 100 100 100 100 100 100 100 100 100 99 100 100 97 100 100 7 100 100 51 10 97 100 100 100 100 100 100 100 100 99 99 100 100
100 100 100 100 100 100 100 100 100 100 100 100 100 100 100 100 100 100 100 98 99 64 99 100 94 87 5 93 98 70 86 100 100 100 100 100 100 100 100 96 100 100 100
100 100 100 100 100 100 100 100 100 100 100 100 100 100 100 100 100 100 100 94 100 100 100 100 100 87 61 42 85 100 100 100 98 100 100 100 100 100 100 100 100 100 100
100 100 100 100 100 100 100 100 100 100 100 100 100 100 100 100 100 100 100 100 100 100 100 100 100 100 100 100 100 100 97 100 100 100 100 98 100 100 100 100 100 100 100
100 100 100 100 100 100 100 100 100 100 100 100 100 100 100 100 100 100 100 100 100 100 100 100 100 100 100 100 100 100 95 100 100 100 76 60 100 100 100 100 100 100 100
100 100 100 100 100 100 100 100 100 100 100 100 100 100 100 100 100 100 100 100 100 100 100 100 100 100 100 100 100 100 100 100 100 100 100 100 100 96 100 100 100 100 100
100 100 100 100 100 100 100 100 100 100 100 100 100 100 100 100 100 100 100 100 100 100 100 97 89 100 100 100 100 100 99 100 100 100 100 99 74 100 100 100 100 100 100
100 100 100 100 100 100 100 100 100 100 100 100 100 100 98 99 100 100 89 84 100 100 100 92 93 100 100 100 100 100 100 100 100 100 100 100 100 100 100 100 100 100 100
100 100 100 100 100 100 100 100 100 100 100 100 100 100 100 100 100 100 100 98 95 100 100 100 91 83 100 100 95 100 100 100 100 100 100 100 100 100 100 100 100 100 100
100 100 100 100 100 100 100 100 100 100 100 100 100 100 100 100 100 100 100 100 100 96 87 100 100 100 100 93 72 100 100 94 100 100 100 100 100 100 100 100 100 100 100
100 100 100 100 100 100 100 100 100 100 100 100 100 100 100 100 100 100 100 100 100 100 97 100 100 100 100 99 88 99 100 100 100 100 100 100 100 100 100 100 100 100 100
100 100 100 100 100 100 100 100 100 100 100 100 100 100 100 100 100 100 98 100 100 100 100 100 100 100 100 100 100 100 99 100 100 100 100 100 100 100 100 100 100 100 100
100 100 100 100 100 100 98 100 100 100 100 100 100 99 100 100 100 100 100 100 100 100 100 100 100 100 100 100 100 100 100 100 100 100 100 100 100 100 100 100 100 100 100

GFSMW_prec_cloud_138.txt.gz
Cloud_Cover
5 9 8 89 100 30 0 0 5 4 4 0 0 10 17 100 100 100 100 100 100 96 0 5 3 0 77 100 73 10 58 10 66 99 100 100 100 100 100 94 79 7 100
0 0 0 3 1 0 0 0 4 1 0 0 0 0 4 26 5 61 100 100 100 93 92 7 36 3 5 55 94 14 66 17 76 100 100 100 100 100 100 100 100 87 100
5 5 5 5 5 8 1 0 0 1 5 0 0 0 1 14 96 77 100 100 100 100 100 87 7 60 1 5 37 46 30 10 5 14 100 100 100 100 95 76 100 100 100
5 12 14 40 60 64 32 0 2 0 0 0 0 0 0 70 68 55 100 100 100 100 100 100 63 53 10 6 94 98 95 83 20 92 100 100 100 100 100 100 93 100 100
53 59 100 100 97 35 82 52 17 0 0 0 0 0 0 0 5 82 82 100 100 71 39 33 100 55 70 9 100 100 100 99 80 22 99 100 100 100 100 82 100 100 100
67 100 60 64 92 17 43 93 94 44 56 57 11 0 0 0 2 59 94 100 100 100 64 35 89 100 19 52 50 99 97 100 100 50 98 100 69 100 94 97 96 100 100
92 10 38 100 100 100 93 100 99 95 100 100 98 24 0 0 0 96 53 100 100 86 100 12 18 91 51 5 8 60 100 100 100 68 86 100 40 65 100 100 100 100 100
78 65 94 100 100 100 100 100 100 100 100 100 100 24 0 1 20 100 100 93 80 88 99 21 20 82 51 88 13 61 69 100 100 100 100 100 98 98 100 100 100 93 93
79 88 100 100 100 100 100 100 100 100 100 100 100 73 60 30 18 96 84 100 87 100 100 57 100 100 100 79 100 100 100 100 56 96 100 100 100 67 11 98 100 100 100
96 100 100 100 100 100 100 100 100 100 100 100 100 100 100 78 47 100 100 100 100 100 100 100 100 100 100 100 100 100 100 92 78 93 100 100 100 100 100 52 58 100 100
100 100 99 100 100 99 96 100 100 100 100 100 100 100 100 80 100 100 100 100 100 100 100 100 100 100 100 100 100 100 100 100 96 100 100 100 100 100 100 100 90 100 99
100 95 100 100 100 100 100 100 100 100 100 100 100 96 100 100 100 100 100 100 100 100 100 100 100 100 100 100 100 100 100 100 100 100 100 100 100 100 100 100 100 100 100
100 95 99 92 100 100 100 100 100 100 100 100 100 100 100 100 100 100 100 100 100 100 100 100 100 100 100 100 100 100 100 100 99 100 100 96 92 82 94 100 100 100 100
100 100 100 100 99 100 100 100 100 100 100 100 100 100 100 100 100 100 100 100 100 100 100 100 100 100 100 100 100 100 99 84 7 5 15 83 90 100 87 39 84 100 100
100 100 100 100 100 100 100 100 100 100 100 100 100 100 100 100 100 100 100 100 100 100 100 100 100 100 100 100 100 100 97 60 66 5 5 11 14 11 30 28 7 52 95
99 100 100 100 100 100 100 100 100 100 100 100 100 100 100 100 100 100 100 100 100 100 100 100 100 100 100 100 100 100 100 93 85 93 38 40 65 75 100 68 94 40 9
100 100 100 100 100 100 100 100 100 100 100 100 100 100 100 100 100 100 100 100 100 100 100 100 100 100 100 100 100 100 100 100 100 98 98 97 30 4 5 90 100 100 94
100 100 100 100 100 100 100 100 100 100 100 100 100 100 100 100 100 100 100 100 100 100 100 100 100 100 100 100 100 100 100 100 100 100 100 100 100 100 68 11 40 85 28
100 100 100 100 100 100 100 100 100 100 100 100 100 100 100 100 100 100 100 100 100 100 100 100 100 100 100 100 100 100 100 100 100 95 97 100 100 100 100 98 26 85 98
100 100 100 100 100 100 100 100 100 86 99 100 100 100 100 100 100 100 100 100 96 100 100 100 100 100 100 100 100 100 100 100 100 100 100 100 100 100 100 100 100 100 100
96 98 100 100 100 100 100 100 100 100 100 100 100 100 100 100 100 100 99 100 100 100 100 100 100 100 100 100 100 100 100 100 100 100 100 100 100 100 100 100 100 100 99
100 100 100 100 100 93 100 100 100 100 100 100 100 100 100 100 100 100 100 100 99 100 100 100 99 100 100 100 100 100 100 100 100 100 100 99 89 90 98 100 100 100 100
96 100 100 100 99 100 98 97 98 100 94 100 100 100 100 100 100 100 100 100 100 100 100 100 100 100 100 100 100 100 100 100 100 100 92 97 60 33 100 100 100 100 100
85 31 87 100 100 100 98 100 100 100 100 100 100 95 100 100 100 100 100 100 100 100 100 100 100 100 100 100 100 100 100 95 100 98 53 5 16 40 87 96 100 100 100
76 8 52 100 100 100 90 100 100 100 100 97 98 100 100 99 95 100 99 100 100 100 100 100 100 100 100 100 100 100 100 100 94 74 22 74 86 92 84 76 97 100 100
100 94 97 98 98 100 100 100 98 100 99 94 94 96 98 100 100 100 100 100 100 99 81 100 100 100 100 100 100 100 100 100 93 73 100 100 100 100 100 99 100 100 100